Theta_e
312 312 313 313 312 312 312 311 312 312 312 312 312 312 312 312 313 313 313 314 314 315 315 316 317 318 315 311 305 314 325 321 317 314 308 306 304 305 301 303 305 303 306 310 312 313 314
312 312 311 311 311 311 311 311 311 311 311 311 311 311 311 312 312 312 313 313 314 314 314 316 317 318 312 305 311 313 314 313 312 310 308 308 305 305 302 302 303 306 305 306 308 309 313
311 311 311 311 311 311 311 311 312 312 312 312 312 311 311 311 311 312 313 313 313 314 315 316 318 315 311 305 312 313 313 310 312 310 306 309 309 304 304 300 305 305 301 304 305 306 307
312 312 311 311 311 311 311 311 312 312 312 313 312 312 311 311 311 312 313 313 313 314 317 318 319 314 308 310 312 310 311 310 311 310 309 310 309 305 302 303 300 298 299 296 303 305 307
312 312 311 312 312 312 312 312 312 312 312 313 313 312 312 311 311 311 312 312 313 316 318 318 315 313 305 312 307 310 310 306 308 309 309 309 307 302 302 297 294 296 290 293 297 305 305
313 313 313 313 312 312 313 313 313 312 312 312 312 311 311 311 311 311 311 311 316 316 316 317 314 305 308 303 307 308 311 309 305 305 305 305 302 299 299 296 288 291 293 294 294 299 301
313 313 313 313 312 311 311 312 312 311 311 311 311 310 310 310 311 311 311 314 309 309 312 305 303 303 304 307 309 306 308 306 305 303 297 301 296 294 297 299 299 297 295 294 297 301 299
312 312 312 312 311 311 310 311 310 311 311 311 311 311 311 311 311 311 310 309 306 308 299 306 305 305 306 307 301 304 308 300 299 295 298 297 293 298 299 299 297 295 293 293 296 299 298
312 312 311 311 311 310 311 311 311 311 311 311 311 311 311 311 311 309 312 309 313 312 300 303 304 303 304 305 300 302 304 301 297 295 295 293 295 299 297 295 294 294 292 292 292 296 298
311 311 311 311 311 310 311 312 312 312 311 311 310 311 311 310 307 311 310 313 314 313 295 297 298 302 303 303 299 305 306 300 297 294 295 294 297 295 294 293 294 290 296 295 293 292 287
311 311 311 311 311 311 311 312 312 312 311 310 310 311 310 308 310 310 310 314 313 310 286 298 299 308 304 300 301 302 306 300 294 294 295 292 294 294 293 294 297 293 297 295 294 292 291
311 311 311 311 311 311 311 311 311 311 310 310 310 310 310 311 312 313 314 314 312 295 286 294 299 298 298 300 300 301 301 303 301 296 296 296 300 298 297 298 298 298 295 294 294 292 285
311 311 311 311 311 311 311 311 311 311 310 310 309 309 307 313 309 315 314 309 294 289 297 293 294 297 297 296 296 297 295 295 292 289 289 293 294 298 300 294 297 295 291 284 282 283 283
311 311 311 311 311 311 311 311 310 310 310 309 307 307 311 312 315 315 309 300 288 294 294 297 296 296 294 296 295 295 294 292 297 294 290 287 285 293 297 294 291 292 291 284 278 280 283
311 311 311 311 311 311 311 310 310 310 309 308 306 314 313 315 316 314 302 292 292 293 296 293 295 293 293 295 295 294 294 293 295 295 288 287 286 295 296 296 296 292 288 293 286 287 284
310 310 311 311 311 311 311 310 310 310 308 306 307 310 311 318 317 310 298 293 296 298 296 295 290 294 290 292 292 293 292 296 295 297 298 292 285 293 295 296 297 294 297 288 289 278 278
311 310 310 311 311 311 311 310 310 309 306 305 309 305 313 317 314 303 295 296 296 298 297 293 293 292 293 292 293 291 292 296 298 297 299 294 291 289 294 291 289 291 291 292 289 287 280
311 310 311 311 311 311 310 308 308 307 304 306 307 298 314 312 299 303 296 296 296 296 299 297 297 296 293 293 292 291 291 294 299 298 292 296 292 285 288 295 297 294 292 291 286 284 287
310 310 310 311 310 310 308 307 308 306 304 303 303 304 313 310 296 296 298 297 299 296 296 295 295 296 297 293 289 292 294 299 299 298 294 296 289 283 285 290 294 290 292 292 293 292 286
310 310 310 310 310 309 307 307 307 306 305 305 304 298 304 305 304 298 296 295 295 299 296 297 296 297 295 293 295 291 293 297 299 298 301 299 291 287 282 286 290 286 290 292 291 287 286
310 310 310 310 309 308 307 307 306 306 306 306 305 300 301 295 296 296 298 296 294 293 297 298 295 294 293 290 291 290 293 295 297 300 298 296 288 290 290 291 291 290 290 291 290 290 286
309 310 310 308 307 305 305 306 306 306 305 306 298 296 298 296 299 297 296 295 293 295 295 293 292 294 294 291 292 290 293 294 294 297 295 297 288 291 288 291 290 288 291 291 291 291 291
309 309 308 307 305 304 304 305 305 306 305 303 304 303 297 295 297 295 294 295 293 295 295 297 295 293 292 295 298 299 299 298 297 295 294 292 290 288 283 290 289 286 290 291 293 294 293
308 307 305 304 303 303 303 304 304 305 305 304 305 302 295 291 293 294 294 296 295 295 292 295 296 293 298 303 302 301 300 299 299 298 298 292 289 288 284 288 279 290 296 295 294 295 296
307 305 303 303 303 303 303 303 303 303 304 302 304 302 296 290 293 293 296 294 295 297 295 295 298 301 304 300 294 292 294 295 297 300 297 298 289 286 283 283 287 289 293 293 291 291 298
305 303 302 302 301 302 302 302 302 303 304 302 302 309 300 291 293 295 294 295 293 292 293 296 301 304 303 296 293 287 286 290 289 292 300 295 293 287 285 281 279 290 293 296 294 286 296
303 302 301 301 301 301 302 301 302 302 303 302 300 310 303 294 298 299 294 293 296 293 289 294 295 297 303 294 289 289 289 294 288 288 289 291 290 285 285 284 288 293 296 296 283 288 297
302 301 301 301 301 301 301 301 302 302 302 301 300 306 301 296 297 300 300 297 296 295 289 295 293 295 294 291 291 291 290 292 292 293 291 290 287 287 287 284 282 297 296 287 293 296 296
301 301 300 300 300 301 301 301 302 303 304 303 297 304 305 299 299 304 303 304 302 301 296 296 293 293 293 293 293 292 291 293 291 286 296 289 293 287 288 290 298 301 298 299 300 296 297
Wind_Speed
16 17 17 18 18 18 18 18 18 18 18 18 18 19 20 20 20 20 20 19 19 18 18 18 17 16 11 9 3 11 12 14 14 15 13 9 12 14 20 21 22 29 28 28 27 26 26
16 17 17 17 18 18 18 19 19 19 18 18 19 19 20 20 20 20 19 19 19 20 21 18 14 13 8 14 3 1 6 7 6 7 9 10 9 14 18 21 23 21 26 28 28 27 23
17 17 18 18 18 19 19 20 20 19 19 18 18 19 21 21 21 21 19 18 18 21 22 17 11 9 12 5 2 5 6 7 2 5 8 10 12 11 13 17 16 21 26 24 28 24 26
17 17 17 18 18 19 20 20 20 21 20 19 18 18 21 21 21 21 21 20 20 19 17 13 9 9 9 6 7 6 10 6 6 10 10 8 9 12 13 16 23 20 21 22 22 25 27
17 17 18 18 18 19 19 19 20 21 21 21 20 20 21 23 22 22 21 22 22 18 10 7 7 9 7 6 6 8 10 9 10 10 11 9 8 12 13 14 15 16 20 24 25 24 21
17 18 18 18 19 18 18 19 20 22 23 23 22 23 23 23 24 22 22 25 12 8 8 9 10 11 10 4 9 10 11 8 9 12 12 14 12 13 13 14 16 17 20 20 25 24 24
18 18 18 19 20 20 20 20 21 23 24 25 25 26 24 25 22 20 15 7 6 7 13 14 12 11 10 2 8 7 4 7 11 12 14 10 12 13 17 17 20 20 22 24 24 24 26
18 18 19 20 21 21 22 21 23 23 23 25 25 26 25 23 22 19 11 9 9 9 11 17 13 9 5 4 7 7 4 8 14 13 13 12 14 14 14 16 17 19 22 25 24 23 22
17 18 19 20 20 20 21 21 22 22 23 24 25 26 26 23 18 12 11 7 8 10 9 6 2 7 7 5 10 12 5 10 14 16 13 12 16 18 16 18 21 20 21 22 24 21 21
17 18 19 18 19 21 21 21 22 23 25 25 25 26 25 21 7 5 2 6 8 8 7 9 9 3 5 5 13 1 6 7 12 15 16 13 17 18 18 20 16 20 19 21 21 21 16
18 19 19 18 19 20 20 22 23 24 24 26 26 26 23 8 12 7 8 9 8 4 5 5 9 7 4 8 9 8 3 6 13 14 13 14 15 15 17 18 18 23 22 23 23 22 22
19 19 18 19 21 22 21 21 24 24 25 27 27 25 21 5 7 6 8 7 5 6 2 6 1 4 9 10 12 5 10 11 17 18 17 20 10 14 9 16 21 19 21 25 23 18 20
19 19 19 19 20 21 22 23 24 25 27 28 30 25 14 11 7 9 9 8 7 7 4 4 6 10 13 16 7 2 7 12 11 10 12 15 11 3 6 10 22 15 14 11 17 16 17
17 18 19 19 20 20 22 22 24 25 27 29 33 27 7 8 9 8 9 9 5 10 9 14 10 15 19 2 5 8 14 13 8 12 12 13 14 8 3 10 17 16 16 7 14 16 16
18 18 19 19 21 21 22 22 24 25 27 29 30 4 4 8 4 5 8 7 4 11 13 11 14 15 8 7 4 14 14 9 7 9 15 14 19 17 19 17 12 17 15 14 12 22 20
18 18 19 19 20 22 22 22 22 25 27 33 11 9 6 6 3 5 7 11 14 8 10 11 13 9 12 16 15 13 13 9 8 12 11 15 19 18 24 21 14 25 18 15 7 7 16
17 18 19 20 20 21 22 22 22 24 27 34 5 5 6 2 2 6 7 12 12 14 12 6 13 14 14 15 14 15 17 15 14 15 18 16 14 17 19 19 19 14 17 9 6 5 7
18 18 19 20 20 19 19 22 22 23 27 12 7 4 6 3 5 4 7 8 5 7 8 10 8 12 10 14 16 16 17 14 14 13 15 11 7 15 21 23 17 10 16 6 8 10 11
17 17 18 19 19 16 18 20 21 22 20 9 8 7 6 4 3 7 10 12 13 6 9 13 11 10 12 14 14 8 15 16 13 16 6 6 6 13 14 14 9 9 21 18 14 9 12
16 17 19 18 17 16 18 19 21 22 20 10 7 5 1 4 1 7 10 13 12 6 11 6 7 11 12 13 14 13 19 18 9 9 16 7 12 15 15 19 10 11 21 21 17 13 17
17 17 18 16 16 18 18 19 20 24 24 8 5 5 6 7 11 14 12 12 14 9 10 9 9 12 11 13 16 18 15 20 16 14 9 3 8 15 19 21 22 23 24 25 22 23 20
16 17 16 16 17 18 17 18 18 22 28 3 7 6 8 12 11 13 11 11 12 11 11 14 16 16 15 13 15 24 22 17 15 14 8 5 8 14 21 21 22 24 23 24 25 22 23
15 14 15 17 17 18 18 18 18 18 19 5 6 1 4 9 10 11 8 10 13 15 7 12 15 16 19 18 21 22 21 21 22 18 11 6 7 10 21 19 16 15 9 19 20 19 10
12 14 18 16 17 16 16 16 16 14 14 7 2 5 3 7 10 11 18 14 13 12 16 16 15 17 21 17 22 21 23 23 21 12 10 6 3 3 10 12 11 8 11 17 19 19 17
14 15 15 16 16 16 16 16 16 15 14 8 6 3 3 8 12 16 17 18 19 13 15 16 16 10 12 17 13 12 13 3 7 10 11 9 1 4 5 6 14 13 10 12 16 23 18
12 13 13 15 16 15 15 15 15 14 14 9 9 2 2 4 5 19 17 15 8 11 14 11 16 13 14 9 9 9 6 6 5 2 10 10 7 3 5 5 5 6 10 10 15 16 15
12 11 12 14 15 15 15 15 15 14 14 9 8 8 3 6 15 13 13 15 14 10 8 15 11 10 7 4 3 5 6 9 5 4 4 5 4 7 10 6 5 2 1 2 3 9 20
12 11 12 13 15 16 15 15 15 14 13 9 9 10 8 11 18 26 23 15 9 7 5 10 10 5 7 4 4 4 5 5 8 10 12 3 3 3 2 5 4 8 5 3 5 16 19
12 12 12 13 14 16 16 16 16 15 14 10 10 10 8 7 14 23 25 26 26 23 12 3 7 6 4 3 4 6 7 5 11 6 12 5 4 4 6 5 11 12 8 9 11 14 13
Wind_Direction
7 5 3 1 358 355 353 349 346 345 343 341 339 336 333 329 326 324 322 319 316 311 307 308 308 313 310 231 46 146 197 219 242 237 252 271 271 261 252 251 247 253 251 249 246 246 261
8 6 5 3 0 357 354 351 349 346 343 341 338 335 332 328 324 320 318 314 310 307 305 302 303 306 257 277 29 343 254 263 282 314 316 296 272 282 287 279 265 264 255 258 258 259 249
8 7 5 3 0 357 353 351 349 347 343 339 336 334 331 328 323 318 313 309 307 305 299 293 294 282 276 287 278 282 289 315 117 304 301 308 329 305 298 298 266 267 273 277 263 265 256
5 4 2 1 359 356 353 351 348 346 342 338 335 331 328 326 322 316 312 309 306 304 295 285 295 279 273 83 328 336 334 315 313 319 279 258 279 287 278 279 294 283 273 265 253 246 254
3 2 359 358 358 355 352 349 347 345 343 340 336 332 329 325 320 314 310 304 301 296 280 266 258 222 263 133 233 343 311 315 315 300 308 281 252 269 286 263 266 241 258 260 266 257 256
2 0 359 357 356 354 348 347 344 343 340 338 336 334 329 323 318 314 312 291 278 279 236 227 254 265 253 239 1 306 288 306 306 292 287 252 233 256 241 245 253 268 256 251 251 256 262
1 360 359 359 356 354 351 345 342 342 339 338 335 332 328 323 313 311 321 304 210 198 234 271 288 270 284 20 296 283 351 301 298 299 272 307 300 273 284 280 279 300 295 284 283 293 298
0 359 359 357 355 354 351 346 344 340 337 334 330 327 326 320 311 307 286 288 33 316 302 284 269 259 286 268 282 310 329 306 321 302 302 277 260 265 287 287 276 281 283 280 286 293 291
358 358 357 354 350 351 346 345 342 338 335 331 328 325 325 321 316 287 252 34 329 318 286 291 240 224 227 210 279 311 329 310 301 310 300 303 304 308 298 292 286 275 273 278 286 291 281
354 353 352 347 345 347 338 339 338 335 333 331 329 327 326 322 290 267 216 351 333 4 275 134 190 183 225 232 262 325 278 314 303 299 303 301 294 283 280 272 273 273 273 277 281 280 271
351 350 348 343 341 338 337 335 334 334 331 328 329 328 326 303 318 288 356 340 352 256 258 151 122 108 250 240 287 268 123 262 279 292 288 289 290 293 289 309 334 312 314 304 287 279 277
350 348 344 341 337 336 336 334 333 333 331 329 328 329 331 227 226 309 335 330 253 241 266 152 156 239 272 307 291 337 267 263 249 249 258 266 275 275 335 311 303 300 289 283 289 274 261
346 345 341 339 337 335 334 335 333 333 332 329 327 323 314 311 334 348 330 279 245 261 134 99 350 325 316 284 347 318 296 283 284 310 297 310 321 343 18 302 321 281 293 287 255 249 262
343 342 338 338 335 336 335 334 332 332 331 328 326 316 263 260 316 344 303 271 274 298 3 8 331 313 269 59 313 257 270 279 318 335 315 323 307 357 166 237 264 273 279 269 283 261 274
343 341 340 340 338 338 336 336 334 334 333 327 318 261 238 236 316 306 289 259 295 7 353 335 313 287 335 325 264 307 302 328 3 324 303 301 293 295 295 300 299 291 286 235 241 273 262
339 340 338 341 338 336 336 338 339 337 336 324 317 288 240 146 239 284 265 264 286 20 353 327 301 289 331 322 315 323 323 340 343 323 333 311 302 301 300 299 276 267 291 294 280 303 279
331 335 339 340 339 338 340 344 343 341 339 320 251 247 94 314 293 245 260 293 354 359 328 309 320 315 315 319 325 325 314 325 3 342 331 317 313 308 303 282 282 300 257 260 12 231 260
333 335 342 339 340 340 347 344 345 347 342 329 297 301 114 247 255 234 256 350 309 299 318 269 268 309 310 312 312 305 300 312 335 329 315 340 292 287 287 286 311 190 284 252 277 290 288
333 339 338 338 338 343 346 345 344 345 358 321 298 294 136 236 310 337 335 321 308 355 323 321 309 322 331 298 298 301 302 299 340 329 324 356 288 308 296 279 42 352 311 306 297 283 261
331 337 335 337 341 346 347 344 343 339 339 319 286 317 89 278 199 303 339 314 324 320 287 311 313 290 307 306 308 296 298 306 326 286 299 274 265 258 277 290 284 246 275 275 284 283 283
331 337 336 341 349 346 346 344 345 338 330 308 285 15 23 310 336 321 297 299 301 315 324 303 301 308 299 307 305 295 292 300 307 312 301 261 263 275 278 283 277 274 263 275 240 245 265
332 333 341 347 347 345 344 344 348 344 332 293 343 351 345 293 311 299 287 306 329 323 340 310 303 308 320 295 273 284 301 305 308 304 285 320 275 293 284 280 278 275 274 272 271 270 268
331 338 344 346 345 345 343 344 351 352 338 344 18 21 331 299 287 307 333 331 312 312 308 310 324 310 299 295 290 303 299 290 281 276 295 282 286 291 276 293 289 290 307 308 329 324 352
337 344 340 342 343 343 342 342 346 353 350 325 339 300 304 288 329 323 321 298 289 312 292 291 296 284 280 300 303 293 274 264 250 240 191 210 222 233 285 294 269 311 348 331 318 310 304
339 341 342 339 341 341 342 342 343 346 346 305 307 270 308 280 313 297 345 330 312 306 314 299 288 323 316 298 297 292 297 167 223 226 212 194 180 278 281 286 288 295 2 344 339 315 352
337 337 341 338 336 337 337 338 337 339 337 304 291 165 242 291 264 333 312 309 345 325 318 328 329 332 300 285 286 282 306 307 336 52 164 161 206 206 299 275 281 53 38 1 342 280 24
328 334 336 335 331 331 332 333 329 331 326 314 296 286 256 269 268 289 303 307 306 305 282 293 347 311 296 301 292 276 303 332 336 0 291 252 207 228 259 261 259 140 298 177 232 318 327
317 325 331 332 328 324 325 325 320 319 317 313 299 299 274 270 285 278 275 282 284 258 251 303 314 18 301 278 304 339 324 328 317 313 297 279 270 262 282 274 299 258 37 215 293 295 297
310 317 324 327 322 323 320 318 315 315 309 304 286 279 289 267 281 298 286 279 265 264 265 229 267 324 282 317 343 326 319 298 318 295 317 318 283 261 205 251 322 341 306 285 276 275 289